Tracking 19792 objects as of 15-Jul-2019
HD Live streaming from Space Station
objects crossing your sky now

COSMOS 1388

Track COSMOS 1388 now!
10-day predictions
COSMOS 1388 is classified as:


NORAD ID: 13375
Int'l Code: 1982-073A
Perigee: 1,400.3 km
Apogee: 1,480.9 km
Inclination: 74.0 °
Period: 114.5 minutes
Semi major axis: 7811 km
RCS: 0.6948 m2 (medium)
Launch date: July 21, 1982
Source: Commonwealth of Independent States (former USSR) (CIS)
Launch site: PLESETSK MISSILE AND SPACE COMPLEX (PKMTR)
aabbcc
Your satellite tracking list
Your tracking list is empty




NASA's NSSDC Master Catalog

Two Line Element Set (TLE):
1 13375U 82073A   19196.13396869 -.00000006  00000-0  60051-4 0  9993
2 13375  74.0124 189.5694 0051591  51.0845  17.9317 12.57462011697857
Source of the keplerian elements: AFSPC